| time (UTC) | temp C | wind direction | speed KPH | gust KPH | rain 1hr cm | rain 24hr cm | rain mn cm | humidity % | barometer mb |
| 20260906183100 | 24 | 344 | 0.0 | 3.2 | 0.00 | 0.00 | 0.00 | 66 | 1027.1 |
| 20260906181605 | 25 | 0 | 0.0 | 6.4 | 0.00 | 0.00 | 0.00 | 65 | 1026.9 |
| 20260906180058 | 25 | 342 | 3.2 | 9.7 | 0.00 | 0.00 | 0.00 | 64 | 1026.8 |
| 20260906174612 | 25 | 360 | 3.2 | 8.0 | 0.00 | 0.00 | 0.00 | 63 | 1026.7 |
| 20260906173108 | 26 | 343 | 1.6 | 14.5 | 0.00 | 0.00 | 0.00 | 61 | 1026.7 |
| 20260906171603 | 26 | 336 | 1.6 | 6.4 | 0.00 | 0.00 | 0.00 | 59 | 1026.5 |
| 20260906170108 | 27 | 355 | 3.2 | 6.4 | 0.00 | 0.00 | 0.00 | 57 | 1026.5 |
| 20260906164601 | 27 | 10 | 3.2 | 8.0 | 0.00 | 0.00 | 0.00 | 56 | 1026.4 |
| 20260906163101 | 28 | 333 | 3.2 | 8.0 | 0.00 | 0.00 | 0.00 | 53 | 1026.3 |
| 20260906161606 | 28 | 15 | 3.2 | 8.0 | 0.00 | 0.00 | 0.00 | 51 | 1026.3 |
| 20260906160057 | 30 | 360 | 1.6 | 11.3 | 0.00 | 0.00 | 0.00 | 48 | 1026.3 |
| 20260906154556 | 30 | 293 | 4.8 | 16.1 | 0.00 | 0.00 | 0.00 | 47 | 1026.2 |
| 20260906153109 | 31 | 0 | 1.6 | 6.4 | 0.00 | 0.00 | 0.00 | 46 | 1026.2 |
| 20260906151556 | 30 | 0 | 1.6 | 4.8 | 0.00 | 0.00 | 0.00 | 47 | 1026.3 |
| 20260906150058 | 30 | 127 | 0.0 | 4.8 | 0.00 | 0.00 | 0.00 | 47 | 1026.2 |
| 20260906144601 | 30 | 0 | 1.6 | 8.0 | 0.00 | 0.00 | 0.00 | 47 | 1026.4 |
| 20260906143102 | 30 | 113 | 3.2 | 9.7 | 0.00 | 0.00 | 0.00 | 47 | 1026.3 |
| 20260906141612 | 30 | 296 | 0.0 | 6.4 | 0.00 | 0.00 | 0.00 | 48 | 1026.2 |
| 20260906140109 | 30 | 98 | 6.4 | 16.1 | 0.00 | 0.00 | 0.00 | 47 | 1026.1 |
| 20260906134612 | 31 | 284 | 1.6 | 14.5 | 0.00 | 0.00 | 0.00 | 47 | 1026.3 |
| 20260906133056 | 31 | 123 | 4.8 | 17.7 | 0.00 | 0.00 | 0.00 | 46 | 1026.3 |
| 20260906131600 | 31 | 0 | 6.4 | 14.5 | 0.00 | 0.00 | 0.00 | 46 | 1026.5 |
| 20260906130106 | 30 | 92 | 3.2 | 16.1 | 0.00 | 0.00 | 0.00 | 48 | 1026.5 |
| 20260906124558 | 30 | 139 | 8.0 | 17.7 | 0.00 | 0.00 | 0.00 | 49 | 1026.6 |
| 20260906123055 | 30 | 98 | 3.2 | 12.9 | 0.00 | 0.00 | 0.00 | 48 | 1026.6 |
| 20260906121607 | 30 | 110 | 6.4 | 16.1 | 0.00 | 0.00 | 0.00 | 48 | 1026.6 |
| 20260906120108 | 30 | 128 | 8.0 | 19.3 | 0.00 | 0.00 | 0.00 | 50 | 1026.5 |
| 20260906114627 | 30 | 277 | 4.8 | 20.9 | 0.00 | 0.00 | 0.00 | 50 | 1026.4 |
| 20260906113100 | 30 | 130 | 8.0 | 17.7 | 0.00 | 0.00 | 0.00 | 50 | 1026.5 |
| 20260906111624 | 30 | 200 | 4.8 | 16.1 | 0.00 | 0.00 | 0.00 | 50 | 1026.5 |
| 20260906104603 | 29 | 140 | 3.2 | 19.3 | 0.00 | 0.00 | 0.00 | 49 | 1026.6 |
| 20260906103101 | 29 | 152 | 4.8 | 14.5 | 0.00 | 0.00 | 0.00 | 49 | 1026.7 |
| 20260906101554 | 28 | 123 | 4.8 | 16.1 | 0.00 | 0.00 | 0.00 | 50 | 1026.9 |
| 20260906100100 | 28 | 130 | 3.2 | 16.1 | 0.00 | 0.00 | 0.00 | 49 | 1026.9 |
| 20260906094555 | 28 | 196 | 6.4 | 16.1 | 0.00 | 0.00 | 0.00 | 49 | 1026.9 |
| 20260906093109 | 28 | 160 | 1.6 | 11.3 | 0.00 | 0.00 | 0.00 | 53 | 1026.9 |
| 20260906091604 | 28 | 115 | 1.6 | 4.8 | 0.00 | 0.00 | 0.00 | 54 | 1027.0 |
| 20260906090115 | 27 | 111 | 1.6 | 8.0 | 0.00 | 0.00 | 0.00 | 56 | 1026.9 |
| 20260906084608 | 26 | 117 | 0.0 | 9.7 | 0.00 | 0.00 | 0.00 | 58 | 1026.9 |
| 20260906083054 | 26 | 144 | 1.6 | 8.0 | 0.00 | 0.00 | 0.00 | 60 | 1026.9 |
| 20260906081607 | 26 | 114 | 1.6 | 6.4 | 0.00 | 0.00 | 0.00 | 62 | 1026.9 |
| 20260906080056 | 25 | 137 | 1.6 | 9.7 | 0.00 | 0.00 | 0.00 | 63 | 1026.8 |
| 20260906074611 | 25 | 113 | 1.6 | 8.0 | 0.00 | 0.00 | 0.00 | 64 | 1026.7 |
| 20260906073109 | 24 | 154 | 3.2 | 8.0 | 0.00 | 0.00 | 0.00 | 66 | 1026.6 |
| 20260906071554 | 24 | 152 | 1.6 | 8.0 | 0.00 | 0.00 | 0.00 | 66 | 1026.4 |
| 20260906070134 | 23 | 0 | 0.0 | 6.4 | 0.00 | 0.00 | 0.00 | 67 | 1026.2 |
| 20260906064559 | 22 | 0 | 0.0 | 3.2 | 0.00 | 0.00 | 0.00 | 69 | 1026.1 |
| 20260906063056 | 22 | 0 | 0.0 | 3.2 | 0.00 | 0.00 | 0.00 | 71 | 1026.1 |
| 20260906061620 | 21 | 0 | 0.0 | 1.6 | 0.00 | 0.00 | 0.00 | 72 | 1026.0 |
| 20260906060104 | 21 | 0 | 0.0 | 1.6 | 0.00 | 0.00 | 0.00 | 73 | 1025.8 |
| 20260906054600 | 21 | 0 | 0.0 | 3.2 | 0.00 | 0.00 | 0.00 | 72 | 1025.7 |
| 20260906053101 | 21 | 0 | 0.0 | 1.6 | 0.00 | 0.00 | 0.00 | 71 | 1025.6 |
| 20260906051558 | 21 | 0 | 0.0 | 3.2 | 0.00 | 0.00 | 0.00 | 70 | 1025.5 |
| 20260906050115 | 21 | 0 | 0.0 | 6.4 | 0.00 | 0.00 | 0.00 | 70 | 1025.5 |
| 20260906044556 | 20 | 360 | 1.6 | 4.8 | 0.00 | 0.00 | 0.00 | 70 | 1025.5 |
| 20260906043111 | 20 | 0 | 0.0 | 1.6 | 0.00 | 0.00 | 0.00 | 71 | 1025.3 |
| 20260906041600 | 20 | 0 | 0.0 | 1.6 | 0.00 | 0.00 | 0.00 | 71 | 1025.2 |
| 20260906040116 | 21 | 0 | 0.0 | 0.0 | 0.00 | 0.00 | 0.00 | 70 | 1025.1 |
| 20260906034601 | 21 | 0 | 0.0 | 1.6 | 0.00 | 0.00 | 0.00 | 70 | 1025.0 |
| 20260906033102 | 21 | 355 | 0.0 | 4.8 | 0.00 | 0.00 | 0.00 | 69 | 1024.8 |
| 20260906031611 | 21 | 0 | 0.0 | 1.6 | 0.00 | 0.00 | 0.00 | 69 | 1024.7 |
| 20260906030110 | 21 | 0 | 0.0 | 1.6 | 0.00 | 0.00 | 0.00 | 69 | 1024.6 |
| 20260906024554 | 21 | 0 | 0.0 | 1.6 | 0.00 | 0.00 | 0.00 | 69 | 1024.7 |
| 20260906023131 | 21 | 0 | 0.0 | 1.6 | 0.00 | 0.00 | 0.00 | 68 | 1024.7 |
| 20260906021600 | 21 | 0 | 0.0 | 1.6 | 0.00 | 0.00 | 0.00 | 69 | 1024.8 |
| 20260906020108 | 21 | 0 | 0.0 | 1.6 | 0.00 | 0.00 | 0.00 | 69 | 1024.6 |
| 20260906014626 | 21 | 0 | 0.0 | 3.2 | 0.00 | 0.00 | 0.00 | 69 | 1024.6 |
| 20260906013104 | 21 | 0 | 0.0 | 0.0 | 0.00 | 0.00 | 0.00 | 70 | 1024.5 |
| 20260906011603 | 21 | 0 | 0.0 | 0.0 | 0.00 | 0.00 | 0.00 | 70 | 1024.5 |
| 20260906004607 | 21 | 355 | 0.0 | 3.2 | 0.00 | 0.00 | 0.00 | 70 | 1024.4 |
| 20260906003104 | 21 | 355 | 0.0 | 1.6 | 0.00 | 0.00 | 0.00 | 71 | 1024.4 |
| 20260906001600 | 21 | 0 | 0.0 | 3.2 | 0.00 | 0.00 | 0.00 | 69 | 1024.5 |
| 20260906000107 | 21 | 0 | 0.0 | 0.0 | 0.00 | 0.00 | 0.00 | 72 | 1024.6 |
| 20260905234605 | 21 | 0 | 0.0 | 0.0 | 0.00 | 0.00 | 0.00 | 72 | 1024.5 |
| 20260905233104 | 21 | 0 | 0.0 | 0.0 | 0.00 | 0.00 | 0.00 | 72 | 1024.5 |
| 20260905231559 | 21 | 0 | 0.0 | 1.6 | 0.00 | 0.00 | 0.00 | 71 | 1024.5 |
| 20260905230109 | 21 | 0 | 0.0 | 3.2 | 0.00 | 0.00 | 0.00 | 71 | 1024.5 |
| 20260905224608 | 21 | 0 | 0.0 | 1.6 | 0.00 | 0.00 | 0.00 | 70 | 1024.5 |
| 20260905223100 | 21 | 0 | 0.0 | 4.8 | 0.00 | 0.00 | 0.00 | 71 | 1024.4 |
| 20260905221556 | 21 | 346 | 3.2 | 6.4 | 0.00 | 0.00 | 0.00 | 71 | 1024.4 |
| 20260905220121 | 21 | 0 | 0.0 | 1.6 | 0.00 | 0.00 | 0.00 | 71 | 1024.3 |
| 20260905214600 | 22 | 0 | 0.0 | 0.0 | 0.00 | 0.00 | 0.00 | 73 | 1024.2 |
| 20260905213104 | 22 | 0 | 0.0 | 1.6 | 0.00 | 0.00 | 0.00 | 73 | 1024.1 |
| 20260905211554 | 22 | 0 | 0.0 | 3.2 | 0.00 | 0.00 | 0.00 | 74 | 1024.0 |
| 20260905210104 | 22 | 350 | 0.0 | 3.2 | 0.00 | 0.00 | 0.00 | 73 | 1024.0 |
| 20260905204600 | 22 | 350 | 1.6 | 6.4 | 0.00 | 0.00 | 0.00 | 72 | 1024.0 |
| 20260905203107 | 22 | 355 | 0.0 | 3.2 | 0.00 | 0.00 | 0.00 | 71 | 1023.9 |
| 20260905201603 | 23 | 336 | 1.6 | 4.8 | 0.00 | 0.00 | 0.00 | 71 | 1023.9 |
| 20260905194558 | 23 | 319 | 1.6 | 6.4 | 0.00 | 0.00 | 0.00 | 71 | 1023.8 |
| 20260905193104 | 23 | 319 | 3.2 | 6.4 | 0.00 | 0.00 | 0.00 | 70 | 1023.7 |
| 20260905191604 | 23 | 335 | 1.6 | 8.0 | 0.00 | 0.00 | 0.00 | 69 | 1023.5 |
| 20260905190113 | 23 | 355 | 3.2 | 6.4 | 0.00 | 0.00 | 0.00 | 69 | 1023.2 |
| 20260905184604 | 24 | 336 | 3.2 | 9.7 | 0.00 | 0.00 | 0.00 | 68 | 1023.1 |